Regional Weather Roundup
Issued by NWS Sioux Falls, SD

Home | Current Version | Previous Version | Text Only | Print | Product List | Glossary On
Versions: 1 2 3 4 5 6 7 8 9 10 11 12 13 14 15 16 17 18 19 20 21 22 23 24 25 26 27 28 29 30 31 32 33 34 35 36 37 38 39 40 41 42 43 44 45 46 47 48 49 50
000
ASUS43 KFSD 240302
RWRFSD

WEATHER ROUNDUP FOR SE SOUTH DAKOTA/SW MINNESOTA/NW IOWA
NATIONAL WEATHER SERVICE SIOUX FALLS SD
1000 PM CDT MON APR 23 2018

NOTE: "FAIR" INDICATES FEW OR NO CLOUDS BELOW 12,000 FEET WITH NO
SIGNIFICANT WEATHER AND OR OBSTRUCTIONS TO VISIBILITY.


SDZ038>040-050-052>070-240400-
SOUTHEAST SOUTH DAKOTA

CITY           SKY/WX    TMP DP  RH WIND       PRES   REMARKS
BROOKINGS      MOCLDY    54  42  64 SE8       30.14R
CHAMBERLAIN    CLOUDY    61  45  55 SE9       30.09R
HURON          CLOUDY    60  43  53 SE9       30.11R
MADISON        CLOUDY    52  50  93 SE7       30.14R
MITCHELL       CLOUDY    58  45  62 SE8       30.12R
SIOUX FALLS    PTCLDY    54  41  61 E8        30.14R
WINNER         CLOUDY    58  42  55 SE12      30.08R
YANKTON        CLEAR     56  37  49 NE8       30.11R
$$

MNZ071-072-080-081-089-090-097-098-240400-
SOUTHWEST MINNESOTA

CITY           SKY/WX    TMP DP  RH WIND       PRES   REMARKS
FAIRMONT       CLEAR     51  40  65 NW3       30.15R
JACKSON        CLEAR     46  41  81 CALM      30.15S
LUVERNE        CLEAR     50  41  71 CALM      30.15R
MARSHALL       PTCLDY    52  42  69 CALM      30.15R
MONTEVIDEO     CLEAR     55  37  50 CALM      30.15S
PIPESTONE      CLEAR    N/A N/A N/A SE6       30.15R
REDWOOD FALLS  CLEAR     57  43  59 SW3       30.14R
TRACY          CLEAR     53  42  68 S5        30.15R
WINDOM         CLEAR     52  34  50 CALM      30.16R
WORTHINGTON    CLEAR     53  40  61 SE5       30.16R
$$

IAZ001>003-012>014-020>022-031-032-NEZ013-014-SDZ071-240400-
NORTHWEST IOWA

CITY           SKY/WX    TMP DP  RH WIND       PRES   REMARKS
CHEROKEE       CLEAR     54  43  66 N6        30.13R
DENISON        CLEAR     55  37  50 NE8       30.12R
ESTHERVILLE    CLEAR     46  44  93 NW5       30.14R
LE MARS        CLEAR     57  41  54 NE13      30.12R
ORANGE CITY    CLEAR     55  43  62 E6        30.13R
SHELDON        CLEAR     48  43  81 NE8       30.13R
SIOUX CITY     PTCLDY    58  40  51 E10       30.10R
SPENCER        CLEAR     48  40  73 NE7       30.14R
STORM LAKE     CLEAR     52  45  76 NE10      30.13R
$$

ABBREVIATIONS USED IN REMARKS
   TC - TEMPERATURE IN CELSIUS
  WCI - WIND CHILL INDEX
   HX - HEAT INDEX
  VSB - VISIBILITY





USA.gov is the U.S. government's official web portal to all federal, state and local government web resources and services.